Flag for Germany Weather past 2 weeks in Waldkraiburg, Bavaria, Germany

Now
66 °F

Partly sunny.


Feels Like: 66 °F
Forecast: 49 / 72 °F
Wind: 5 mph from West

Location: Muenchen Flughafen

Current Time: May 28, 2015 at 5:00:35 PM

Latest Report: May 28, 2015 at 4:00 PM


Visibility: 25 mi

Pressure: 29.98 "Hg

Humidity: 39%

Dew point: 40 °F

Location of WaldkraiburgLocation

Historic Weather in Waldkraiburg — Graph

°F

Waldkraiburg temperature yesterday

Maximum temperature yesterday: 56 °F (at 5:00 PM)
Minimum temperature yesterday: 42 °F (at 4:00 AM)
Average temperature yesterday: 50 °F

Past Weeks' High & Low Weather Summary

 TemperatureHumidityPressure
High74 °F (May 18, 7:00 PM)100% (May 16, 2:00 AM)30.33 "Hg (May 16, 2:00 AM)
Low38 °F (May 28, 5:00 AM)39% (May 28, 4:00 PM)29.69 "Hg (May 18, 8:00 PM)
Average54 °F79%30.05 "Hg
* Reported May 13 4:00 PM — May 28 4:00 PM, Waldkraiburg, Weather by CustomWeather, © 2015

Note: Actual official high and low records may vary slightly from our data, if they occured in-between our weather recording intervals... More about our weather records

Advertising

Waldkraiburg weather history for previous 24 hours

 ConditionsComfort  
Time TempWeatherWind HumidityBarometerVisibility
4:00 PM
Thu, May 28
66 °FPartly sunny.5 mph39%29.98 "Hg25 mi
3:00 PM65 °FPartly sunny.5 mph46%30.00 "Hg25 mi
2:00 PM63 °FOvercast.2 mph50%30.02 "Hg22 mi
1:00 PM61 °FPartly sunny.5 mph53%30.06 "Hg19 mi
12:00 PM59 °FPartly sunny.3 mph53%30.08 "Hg22 mi
11:00 AM58 °FPartly sunny.5 mph60%30.09 "Hg22 mi
10:00 AM54 °FPartly sunny.3 mph67%30.11 "Hg19 mi
9:00 AM50 °FPartly sunny.2 mph74%30.14 "Hg16 mi
8:00 AM47 °FScattered clouds.2 mph83%30.14 "Hg16 mi
7:00 AM42 °FScattered clouds.1 mph87%30.16 "Hg12 mi
6:00 AM40 °FFog.No wind86%30.17 "Hg12 mi
5:00 AM38 °FFog.No wind98%30.19 "Hg9 mi
4:00 AM40 °FPassing clouds.No wind97%30.18 "Hg9 mi
3:00 AM41 °FOvercast.1 mph96%30.19 "Hg9 mi
2:00 AM41 °FOvercast.No wind97%30.21 "Hg9 mi
1:00 AM40 °FPassing clouds.1 mph96%30.22 "Hg16 mi
12:00 AM42 °FClear.1 mph89%30.23 "Hg19 mi
11:00 PM
Wed, May 27
47 °FPassing clouds.1 mph72%30.22 "Hg22 mi
10:00 PM47 °FPassing clouds.1 mph76%30.22 "Hg22 mi
9:00 PM51 °FPassing clouds.2 mph70%30.19 "Hg22 mi
8:00 PM54 °FPartly sunny.2 mph63%30.18 "Hg25 mi
7:00 PM55 °FPartly sunny.3 mph56%30.18 "Hg25 mi
6:00 PM56 °FPartly sunny.5 mph59%30.18 "Hg22 mi
5:00 PM56 °FOvercast.5 mph58%30.19 "Hg22 mi
Weather by CustomWeather, © 2015

See weather overviewHow to use our weather pages